Regional Weather Roundup
Issued by NWS State College, PA

Home | Current Version | Previous Version | Graphics & Text | Print | Product List | Glossary Off
Versions: 1 2 3 4 5 6 7 8 9 10 11 12 13 14 15 16 17 18 19 20 21 22 23 24 25 26 27 28 29 30 31 32 33 34 35 36 37 38 39 40 41 42 43 44 45 46 47 48 49 50

000
ASUS41 KCTP 041710
RWRCTP

REGIONAL WEATHER ROUNDUP
NATIONAL WEATHER SERVICE STATE COLLEGE PA
100 PM EDT TUE AUG 04 2015

Note: "fair" indicates few or no clouds below 12,000 feet with no
significant weather and/or obstructions to visibility.

* = STATION THAT DOES NOT REPORT PRECIPITATION /E.G. RAIN...SNOW...ETC/
    THUNDER OR FOG.

PAZ002>004-007>009-013>016-020>023-029>032-041800-
WESTERN PENNSYLVANIA

CITY           SKY/WX    TMP DP  RH WIND       PRES   REMARKS
ERIE           PTSUNNY   77  54  44 W16       29.94S
MEADVILLE      MOSUNNY   78  53  41 W14G20    29.97F
FRANKLIN*      MOSUNNY   77  54  44 W13G18    29.99S
NEW CASTLE     PTSUNNY   81  56  42 SW9       29.98F
BEAVER COUNTY  MOSUNNY   77  57  50 W3        29.99F
BUTLER*        SUNNY     77  55  47 NW7       30.01R
PITTSBURGH INT MOSUNNY   78  54  43 VRB6      29.99S
PITTSBURGH     SUNNY     76  49  38 VRB3      29.99S
INDIANA*       SUNNY     75  55  50 NW10G17   30.02S
LATROBE        MOSUNNY   77  55  47 SW12G17   30.01S
WASHINGTON CO* NOT AVBL
$$

PAZ004>006-010>012-017>019-024>028-033>037-041-042-045-046-049>053-041800-
CENTRAL PENNSYLVANIA

CITY           SKY/WX    TMP DP  RH WIND       PRES   REMARKS
BRADFORD       PTSUNNY   73  53  49 W10       29.97S
DUBOIS         MOSUNNY   76  55  48 W14G22    29.98S
CLEARFIELD     PTSUNNY   78  55  44 SW12G21   29.97S
JOHNSTOWN      SUNNY     73  53  49 W10G18    30.02S
ALTOONA        SUNNY     79  53  40 W13       29.99S
STATE COLLEGE  MOSUNNY   75  59  57 W15       29.97R
WILLIAMSPORT   SUNNY     82  58  43 W13G21    29.89S
SELINSGROVE    MOSUNNY   83  57  41 VRB5G18   29.92R
FT INDIANTOWN  SUNNY     84  56  38 W10G20    29.91R
CAPITAL CITY   SUNNY     87  54  32 W16G23    29.91R
HARRISBURG     SUNNY     86  53  32 W16G26    29.90S
YORK           MOSUNNY   83  61  47 W14G22    29.93R
$$

PAZ038>040-043-044-047-048-054-055-060>062-067>071-041800-
EASTERN PENNSYLVANIA

CITY           SKY/WX    TMP DP  RH WIND       PRES   REMARKS
SCRANTON       SUNNY     82  56  40 W17G24    29.89S
MOUNT POCONO   MOSUNNY   78  54  43 W17G25    29.93F
ALLENTOWN      SUNNY     83  66  56 SW17G24   29.88F
QUAKERTOWN*    MOSUNNY   84  64  51 W9G16     29.90F
READING        MOSUNNY   86  62  44 W14G22    29.88F
LANCASTER      SUNNY     84  61  45 W21       29.90F
COATESVILLE    MOSUNNY   82  64  54 W13G21    29.92F
POTTSTOWN      MOSUNNY   82  66  58 W8G18     29.91S
BLUE BELL      SUNNY     86  68  54 W9G22     29.88S
DOYLESTOWN     SUNNY     83  64  52 W9G18     29.88F
WILLOW GROVE   NOT AVBL
NORTH PHILA    SUNNY     90  61  37 W15G23    29.88F
PHILADELPHIA   MOSUNNY   90  64  42 W16G23    29.89S
$$


USA.gov is the U.S. government's official web portal to all federal, state and local government web resources and services.